Regional Weather Roundup
Issued by NWS State College, PA

Home | Current Version | Previous Version | Text Only | Print | Product List | Glossary On
Versions: 1 2 3 4 5 6 7 8 9 10 11 12 13 14 15 16 17 18 19 20 21 22 23 24 25 26 27 28 29 30 31 32 33 34 35 36 37 38 39 40 41 42 43 44 45 46 47 48 49 50
000
ASUS41 KCTP 270410
RWRCTP

REGIONAL WEATHER ROUNDUP
NATIONAL WEATHER SERVICE STATE COLLEGE PA
1200 AM EDT TUE JUN 27 2017

Note: "fair" indicates few or no clouds below 12,000 feet with no
significant weather and/or obstructions to visibility.

* = STATION THAT DOES NOT REPORT PRECIPITATION /E.G. RAIN...SNOW...ETC/
    THUNDER OR FOG.

PAZ002>004-007>009-013>016-020>023-029>032-270500-
WESTERN PENNSYLVANIA

CITY           SKY/WX    TMP DP  RH WIND       PRES   REMARKS
ERIE           LGT RAIN  57  50  77 W13G22    30.01R
MEADVILLE      CLOUDY    54  48  80 W6        30.02S
FRANKLIN*      MOCLDY    50  45  81 S6        30.02F
NEW CASTLE     MOCLDY    51  50  96 CALM      30.02F
BEAVER COUNTY  NOT AVBL
BUTLER*        PTCLDY    54  48  82 CALM      30.02F
PITTSBURGH INT MOCLDY    62  49  62 S5        30.02F
PITTSBURGH     CLOUDY    61  47  59 S7        30.03S
INDIANA*       CLEAR     57  54  88 CALM      30.06F
LATROBE        CLOUDY    57  54  88 S6        30.05S
WASHINGTON CO* CLOUDY    57  50  77 CALM      30.06S
$$

PAZ004>006-010>012-017>019-024>028-033>037-041-042-045-046-049>053-270500-
CENTRAL PENNSYLVANIA

CITY           SKY/WX    TMP DP  RH WIND       PRES   REMARKS
BRADFORD       MOCLDY    50  49  96 SE3       30.01F
DUBOIS         FOG       49  47  93 CALM      30.03F VSB 1
CLEARFIELD     CLOUDY    56  51  84 NW5       30.05R
JOHNSTOWN      PTCLDY    58  48  69 SW9       30.05F
ALTOONA        MOCLDY    60  51  72 CALM      30.04F
STATE COLLEGE  CLOUDY    57  52  82 CALM      30.03F
WILLIAMSPORT   CLOUDY    61  55  81 N3        30.02R
SELINSGROVE    CLOUDY    62  58  86 CALM      30.03S
FT INDIANTOWN  CLOUDY    60  58  92 CALM      30.02R
CAPITAL CITY   PTCLDY    63  59  87 W5        30.02R
HARRISBURG     PTCLDY    63  61  93 NW10      30.01R
YORK           PTCLDY    61  57  87 CALM      30.01S
$$

PAZ038>040-043-044-047-048-054-055-060>062-067>071-270500-
EASTERN PENNSYLVANIA

CITY           SKY/WX    TMP DP  RH WIND       PRES   REMARKS
SCRANTON       CLOUDY    59  56  89 CALM      30.05S
MOUNT POCONO   LGT RAIN  55  52  89 W8        30.06R
ALLENTOWN      CLOUDY    66  53  63 NW8       30.01R
QUAKERTOWN*    MOCLDY    63  54  72 CALM      30.02R
READING        LGT RAIN  63  59  87 CALM      30.01S
LANCASTER      MOCLDY    64  59  83 SE5       30.00F
COATESVILLE    CLOUDY    68  50  52 NW8       30.03R
POTTSTOWN      CLOUDY    65  52  62 NW6       30.03R
BLUE BELL      MOCLDY    59  55  88 CALM      30.00F
DOYLESTOWN     PTCLDY    61  53  75 CALM      29.99S
WILLOW GROVE   NOT AVBL
NORTH PHILA    CLEAR     71  51  49 VRB3      30.00S
PHILADELPHIA   PTCLDY    70  54  56 S8        29.99S
$$




USA.gov is the U.S. government's official web portal to all federal, state and local government web resources and services.